Location: Franzen
(48.6167°N, 15.3833°E)
Time: 10:00:30
(UTC+00:00)

Helios 1A Rocket - Pass Details

Date: 22 April 2021
Orbit: 563 x 585 km, 98.3° (Epoch: 16 May)

Event Time Altitude Azimuth Distance (km) Brightness Sun altitude
Rises 18:39:58 0° 181° (S) 2,770 6.1 -6.8°
Reaches altitude 10° 18:42:11 10° 188° (S) 1,881 5.3 -7.1°
Maximum altitude 18:46:04 43° 261° (W) 821 4.2 -7.7°
Drops below altitude 10° 18:50:02 10° 333° (NNW) 1,909 6.5 -8.3°
Sets 18:52:17 0° 341° (NNW) 2,817 7.3 -8.6°
